[[{"header":{"parameterUnit":"m.s-1","parameterCategory":1,"la1":30.2991,"la2":30.254,"lo1":-89.0895,"lo2":-89.0444,"dy":0.0017,"dx":0.0017,"nx":28,"ny":28,"refTime":"2025-01-13T03:00:00:Z","depth":0,"parameterNumber":2,"parameterNumberName":"U-component_of_WINDS"},"data":[0,0,0,0,0,0,0,0,0,0,0,0,0,0,0,0,0,0,0,0,0,0,0,0,0,0,0,0,0,0,0,0,0,0,0,0,0,0,0,0,0,0,0,0,0,0,0,0,0,0,0,0,0,0,0,0,0,0,-2.5342,-2.5343,0,-2.5436,-2.5437,-2.5438,-2.5397,-2.5394,-2.5392,-2.539,-2.5488,-2.5493,-2.5497,0,0,0,0,0,0,0,0,0,0,0,0,0,-2.5129,-2.5134,-2.5342,-2.5343,-2.5344,-2.5436,-2.5437,-2.5438,-2.5397,-2.5394,-2.5391,-2.5389,-2.5487,-2.5492,-2.5498,0,0,0,0,0,0,0,0,0,0,0,0,0,-2.5222,-2.5135,-2.5342,-2.5335,-2.5335,-2.5435,-2.5437,-2.5438,-2.5398,-2.5394,-2.5391,-2.5387,-2.5485,-2.5492,-2.5499,-2.5612,0,0,-2.5521,-2.5524,0,0,0,0,0,0,0,0,-2.5217,-2.523,-2.5335,-2.5335,-2.5336,-2.5401,-2.5398,-2.5497,-2.5398,-2.5374,-2.539,-2.5386,-2.5462,-2.5471,-2.5496,-2.5617,-2.5621,-2.5521,-2.5526,-2.5529,-2.5531,0,0,0,0,0,0,0,-2.5211,-2.5226,-2.5379,-2.5336,-2.5337,-2.5328,-2.5337,-2.5416,-2.5436,-2.5376,-2.5373,-2.5385,-2.5462,-2.5489,-2.5498,-2.5622,-2.5521,-2.5527,-2.5532,-2.5535,-2.5842,-2.5846,0,0,0,0,0,0,-2.5204,-2.5221,-2.5376,-2.5382,-2.5267,-2.5334,-2.5345,-2.5384,-2.5435,-2.544,-2.5387,-2.5382,-2.5479,-2.549,-2.5501,-2.5639,-2.5529,-2.5535,-2.5539,-2.5838,-2.5843,-2.5847,0,0,0,0,0,0,-2.52,-2.5218,-2.5372,-2.5301,-2.532,-2.5342,-2.5386,-2.5387,-2.5415,-2.5444,-2.5448,-2.5412,-2.5476,-2.5491,-2.5585,-2.5642,-2.5538,-2.5545,-2.5834,-2.584,-2.5845,-2.5915,0,0,0,0,0,0,-2.5194,-2.5217,-2.526,-2.5302,-2.5324,-2.5454,-2.5389,-2.5392,-2.5427,-2.5421,-2.5468,-2.5472,-2.5475,-2.5575,-2.5592,-2.565,-2.5551,-2.5829,-2.5836,-2.5843,-2.5908,-2.5922,-2.5935,0,0,0,0,0,-2.5186,-2.5276,-2.5262,-2.5281,-2.5377,-2.5457,-2.547,-2.547,-2.5432,-2.5475,-2.5494,-2.5471,-2.5632,-2.5585,-2.5604,-2.5665,-2.5825,-2.5834,-2.5843,-2.5901,-2.5919,-2.5934,0,0,0,0,0,0,-2.5241,-2.5281,-2.5267,-2.5372,-2.5412,-2.545,-2.5506,-2.5489,-2.5541,-2.5533,-2.5532,-2.5543,-2.564,-2.5661,-2.5608,-2.5778,-2.5723,-2.5736,-2.5761,-2.5778,-2.5792,-2.5786,-2.5556,0,0,0,0,0,-2.5265,-2.5326,-2.5358,-2.5448,-2.5468,-2.5484,-2.5518,-2.5515,-2.5556,-2.5573,-2.5599,-2.564,-2.57,-2.574,-2.5797,-2.5909,-2.592,-2.5961,-2.5974,-2.5985,-2.5998,-2.6061,-2.608,-2.5876,-2.5876,-2.5876,0,0,-2.5316,-2.5345,-2.5384,-2.546,-2.549,-2.5554,-2.5498,-2.5568,-2.5616,-2.5584,-2.5674,-2.5694,-2.5741,-2.5845,-2.5892,-2.5865,-2.6056,-2.5997,-2.6005,-2.6011,-2.6072,-2.6091,-2.6108,-2.5882,-2.5881,-2.588,0,0,-2.5442,-2.5469,-2.5548,-2.558,-2.5626,-2.5635,-2.5654,-2.5695,-2.5707,-2.5798,-2.5775,-2.5832,-2.5935,-2.597,-2.6001,-2.6139,-2.6121,-2.6158,-2.623,-2.6292,-2.6308,-2.6322,-2.6374,-2.6392,-2.6169,-2.6169,-2.6169,0,-2.55,-2.5595,-2.5591,-2.5663,-2.5698,-2.5671,-2.5752,-2.5782,-2.5845,-2.587,-2.5838,-2.5968,-2.5997,-2.611,-2.6143,-2.6168,-2.6192,-2.6154,-2.6305,-2.632,-2.6333,-2.6383,-2.6402,-2.6174,-2.6173,-2.6173,-2.6172,0,-2.5665,-2.5731,-2.5789,-2.585,-2.5891,-2.5967,-2.5976,-2.6018,-2.6011,-2.6024,-2.6117,-2.615,-2.6214,-2.624,-2.6234,-2.6353,-2.6335,-2.6305,-2.625,-2.6357,-2.6404,-2.6422,-2.618,-2.6178,-2.6177,-2.6176,0,0,-2.583,-2.5887,-2.5909,-2.5937,-2.5985,-2.6037,-2.6111,-2.6173,-2.621,-2.6254,-2.6318,-2.6406,-2.6378,-2.6413,-2.641,-2.6464,-2.6575,-2.6427,-2.6429,-2.6456,-2.671,-2.6734,-2.6756,-2.6561,-2.6565,-2.6567,-2.6707,0,-2.5961,-2.6092,-2.6091,-2.6213,-2.6275,-2.625,-2.6315,-2.6353,-2.6367,-2.6422,-2.6437,-2.65,-2.6458,-2.6479,-2.6531,-2.655,-2.6626,-2.654,-2.6623,-2.6626,-2.6615,-2.678,-2.6806,-2.6936,-2.6725,-2.6728,-2.673,0,-2.6133,-2.6182,-2.631,-2.635,-2.6376,-2.6435,-2.6492,-2.6544,-2.6587,-2.6593,-2.6632,-2.6621,-2.6699,-2.664,-2.6747,-2.6689,-2.6722,-2.6737,-2.6742,-2.6752,-2.6686,-2.6797,-2.6977,-2.6998,-2.6758,-2.6756,-2.6754,0,-2.6244,-2.6341,-2.6431,-2.6455,-2.6504,-2.6546,-2.6568,-2.6607,-2.6644,-2.6694,-2.6718,-2.6776,-2.6809,-2.6855,-2.686,-2.6816,-2.697,-2.6911,-2.6979,-2.6979,-2.7015,-2.7013,-2.7206,-2.7032,-2.7032,-2.7031,-2.7031,0,-2.6392,-2.6472,-2.6482,-2.6537,-2.6626,-2.6624,-2.6712,-2.6731,-2.6765,-2.6825,-2.6805,-2.6862,-2.6864,-2.6922,-2.6927,-2.7017,-2.7031,-2.704,-2.7041,-2.7043,-2.7043,-2.7067,-2.706,-2.7036,-2.7035,-2.7034,-2.7033,0,-2.6532,-2.6541,-2.6638,-2.6675,-2.6687,-2.6751,-2.6784,-2.6837,-2.6848,-2.6924,-2.6941,-2.696,-2.7027,-2.7037,-2.7115,-2.7118,-2.7227,-2.7217,-2.7213,-2.7213,-2.7282,-2.7276,-2.7499,-2.753,-2.7334,-2.7335,-2.7337,0,-2.6628,-2.6689,-2.6733,-2.6771,-2.6795,-2.6857,-2.6895,-2.6895,-2.6935,-2.6988,-2.7036,-2.7101,-2.7153,-2.7262,-2.7283,-2.7344,-2.7337,-2.7411,-2.7346,-2.7347,-2.7341,-2.7339,-2.7346,-2.7424,-2.7426,-2.7428,-2.7429,0,-2.6798,-2.6799,-2.6854,-2.6912,-2.6957,-2.7003,-2.7045,-2.7077,-2.7083,-2.7129,-2.7198,-2.7238,-2.7319,-2.7385,-2.7444,-2.7468,-2.7451,-2.7449,-2.7469,-2.7474,-2.747,-2.7476,-2.7251,-2.7445,-2.7443,-2.7442,-2.7441,-2.7441,-2.692,-2.6974,-2.7013,-2.7076,-2.7107,-2.7148,-2.72,-2.7218,-2.7275,-2.734,-2.7336,-2.7412,-2.7453,-2.7531,-2.7559,-2.7619,-2.7595,-2.7623,-2.7631,-2.7638,-2.7646,-2.7458,-2.763,-2.7629,-2.7629,-2.7629,-2.7628,0,-2.7091,-2.7115,-2.7173,-2.7233,-2.7282,-2.7259,-2.7305,-2.7349,-2.7415,-2.7454,-2.7506,-2.7586,-2.7649,-2.7675,-2.7737,-2.7781,-2.7775,-2.7798,-2.7796,-2.7802,-2.7663,-2.7641,-2.7802,-2.7802,-2.7802,-2.7802,-2.7802,-2.7801,-2.7187,-2.7277,-2.7283,-2.7389,-2.7412,-2.7486,-2.7514,-2.7552,-2.7583,-2.7672,-2.7725,-2.774,-2.7775,-2.784,-2.7898,-2.7904,-2.7929,-2.7956,-2.7959,-2.7829,-2.7812,-2.7795,-2.7775,-2.7961,-2.7961,-2.8094,-2.8095,-2.8096]},{"header":{"parameterUnit":"m.s-1","parameterCategory":1,"la1":30.2991,"la2":30.254,"lo1":-89.0895,"lo2":-89.0444,"dy":0.0017,"dx":0.0017,"nx":28,"ny":28,"refTime":"2025-01-13T03:00:00:Z","depth":0,"parameterNumber":3,"parameterNumberName":"V-component_of_WINDS"},"data":[0,0,0,0,0,0,0,0,0,0,0,0,0,0,0,0,0,0,0,0,0,0,0,0,0,0,0,0,0,0,0,0,0,0,0,0,0,0,0,0,0,0,0,0,0,0,0,0,0,0,0,0,0,0,0,0,0,0,-6.3,-6.3,0,-6.3032,-6.3032,-6.3032,-6.2904,-6.2901,-6.2897,-6.2893,-6.2924,-6.2928,-6.2932,0,0,0,0,0,0,0,0,0,0,0,0,0,-6.2825,-6.2829,-6.3,-6.3,-6.3001,-6.3032,-6.3032,-6.3032,-6.2905,-6.29,-6.2896,-6.2892,-6.2922,-6.2927,-6.2933,0,0,0,0,0,0,0,0,0,0,0,0,0,-6.2883,-6.283,-6.3,-6.2941,-6.2936,-6.3032,-6.3032,-6.3033,-6.2906,-6.29,-6.2895,-6.2889,-6.2921,-6.2927,-6.2933,-6.3087,0,0,-6.2953,-6.2956,0,0,0,0,0,0,0,0,-6.288,-6.289,-6.2949,-6.2945,-6.294,-6.2958,-6.2981,-6.3051,-6.2907,-6.2917,-6.2893,-6.2887,-6.294,-6.2944,-6.2963,-6.3088,-6.3089,-6.2954,-6.2958,-6.296,-6.2962,0,0,0,0,0,0,0,-6.2876,-6.2888,-6.3012,-6.295,-6.2944,-6.2912,-6.2914,-6.2994,-6.296,-6.2916,-6.2907,-6.2912,-6.2936,-6.2957,-6.2962,-6.309,-6.2954,-6.2959,-6.2963,-6.2966,-6.3342,-6.3348,0,0,0,0,0,0,-6.288,-6.2885,-6.3011,-6.3013,-6.2895,-6.2919,-6.2922,-6.2958,-6.2959,-6.2953,-6.2917,-6.2906,-6.2948,-6.2955,-6.2963,-6.3143,-6.296,-6.2966,-6.297,-6.3336,-6.3343,-6.335,0,0,0,0,0,0,-6.2877,-6.2893,-6.301,-6.2947,-6.2959,-6.2928,-6.297,-6.2962,-6.2982,-6.296,-6.2952,-6.2945,-6.2944,-6.2954,-6.3057,-6.3142,-6.2969,-6.2975,-6.3329,-6.3338,-6.3347,-6.3503,0,0,0,0,0,0,-6.2873,-6.2892,-6.2951,-6.2949,-6.2963,-6.3105,-6.2975,-6.2966,-6.2994,-6.298,-6.2984,-6.2979,-6.294,-6.3048,-6.3063,-6.3148,-6.298,-6.3321,-6.3333,-6.3344,-6.3491,-6.3517,-6.3539,0,0,0,0,0,-6.2867,-6.2994,-6.2955,-6.2971,-6.3036,-6.311,-6.3118,-6.3072,-6.3001,-6.306,-6.3045,-6.2979,-6.313,-6.306,-6.3076,-6.3163,-6.3315,-6.333,-6.3343,-6.348,-6.3512,-6.3539,0,0,0,0,0,0,-6.3006,-6.2992,-6.2949,-6.3079,-6.3097,-6.3088,-6.3161,-6.3107,-6.3145,-6.313,-6.307,-6.3072,-6.3186,-6.3184,-6.3106,-6.3311,-6.321,-6.3228,-6.3309,-6.3339,-6.3363,-6.3361,-6.2986,0,0,0,0,0,-6.3052,-6.3114,-6.3098,-6.3214,-6.3226,-6.3192,-6.3222,-6.3185,-6.3201,-6.3207,-6.32,-6.3217,-6.3268,-6.3303,-6.3349,-6.3489,-6.3488,-6.3557,-6.3582,-6.3602,-6.3618,-6.3692,-6.3723,-6.3395,-6.3395,-6.3395,0,0,-6.3147,-6.3147,-6.319,-6.3242,-6.3252,-6.3317,-6.3199,-6.3273,-6.332,-6.3218,-6.3316,-6.3311,-6.3325,-6.3448,-6.3502,-6.3451,-6.3708,-6.3619,-6.3635,-6.3641,-6.3709,-6.3741,-6.3768,-6.3404,-6.3403,-6.3401,0,0,-6.3354,-6.3361,-6.3459,-6.347,-6.3486,-6.3463,-6.3486,-6.3486,-6.3479,-6.3576,-6.3501,-6.3555,-6.3645,-6.3659,-6.3677,-6.3889,-6.3829,-6.3905,-6.4033,-6.4106,-6.4132,-6.4154,-6.4231,-6.4259,-6.3921,-6.3922,-6.3922,0,-6.3471,-6.3567,-6.3515,-6.3594,-6.3619,-6.3531,-6.3629,-6.3642,-6.3672,-6.3691,-6.3633,-6.3743,-6.3747,-6.3871,-6.3923,-6.3941,-6.3966,-6.3905,-6.4132,-6.4155,-6.4175,-6.4247,-6.4276,-6.3931,-6.393,-6.3929,-6.3928,0,-6.3709,-6.3777,-6.3853,-6.3886,-6.3919,-6.4007,-6.3968,-6.4008,-6.3967,-6.395,-6.4049,-6.405,-6.4095,-6.4121,-6.4083,-6.4241,-6.4208,-6.4143,-6.404,-6.4216,-6.4283,-6.431,-6.3944,-6.3941,-6.3938,-6.3936,0,0,-6.4006,-6.4008,-6.4038,-6.4051,-6.4061,-6.4112,-6.4196,-6.424,-6.4275,-6.4298,-6.4367,-6.4444,-6.4383,-6.4404,-6.4366,-6.443,-6.4598,-6.4356,-6.4355,-6.4402,-6.4773,-6.4823,-6.4856,-6.4558,-6.4563,-6.4567,-6.4772,0,-6.421,-6.4355,-6.431,-6.4455,-6.4517,-6.4433,-6.4505,-6.4519,-6.4505,-6.4554,-6.4537,-6.4594,-6.4509,-6.4521,-6.458,-6.4565,-6.4672,-6.455,-6.4621,-6.4624,-6.4622,-6.4891,-6.4944,-6.5138,-6.4797,-6.4802,-6.4805,0,-6.4468,-6.4502,-6.4654,-6.4654,-6.4678,-6.4745,-6.4781,-6.483,-6.4843,-6.4828,-6.4852,-6.48,-6.4881,-6.4777,-6.4888,-6.4806,-6.4832,-6.4829,-6.4835,-6.4841,-6.4726,-6.4905,-6.5198,-6.5228,-6.4845,-6.4842,-6.4839,0,-6.4671,-6.4755,-6.4856,-6.487,-6.4872,-6.4921,-6.4924,-6.4932,-6.4961,-6.4993,-6.5011,-6.5051,-6.5074,-6.5106,-6.5066,-6.4994,-6.5183,-6.5076,-6.5172,-6.5174,-6.5217,-6.5215,-6.552,-6.5233,-6.5232,-6.5232,-6.5231,0,-6.4904,-6.5001,-6.4947,-6.501,-6.5115,-6.5062,-6.5167,-6.5161,-6.5168,-6.5227,-6.5156,-6.5213,-6.5156,-6.5208,-6.5177,-6.5273,-6.5283,-6.5273,-6.5264,-6.5281,-6.5282,-6.5298,-6.5284,-6.5239,-6.5237,-6.5236,-6.5235,0,-6.5149,-6.5117,-6.5223,-6.5216,-6.5217,-6.5295,-6.5288,-6.5345,-6.5325,-6.5401,-6.5416,-6.5385,-6.5441,-6.5404,-6.5461,-6.544,-6.5567,-6.5538,-6.5563,-6.5556,-6.5655,-6.5647,-6.5982,-6.6023,-6.5708,-6.5711,-6.5714,0,-6.5301,-6.5373,-6.5375,-6.541,-6.5418,-6.5475,-6.5504,-6.5454,-6.5488,-6.5509,-6.5563,-6.5614,-6.5652,-6.5747,-6.5728,-6.5771,-6.5744,-6.5858,-6.575,-6.5764,-6.5747,-6.5744,-6.5751,-6.5881,-6.5885,-6.5888,-6.589,0,-6.5574,-6.5555,-6.5601,-6.5642,-6.568,-6.5709,-6.5733,-6.5765,-6.5714,-6.5756,-6.5813,-6.5843,-6.5901,-6.5953,-6.5988,-6.599,-6.5933,-6.5924,-6.5949,-6.5967,-6.5979,-6.5975,-6.5624,-6.5917,-6.5914,-6.5912,-6.5911,-6.591,-6.5777,-6.5838,-6.5849,-6.5902,-6.5915,-6.5938,-6.5992,-6.5979,-6.6026,-6.607,-6.6037,-6.6106,-6.6116,-6.6158,-6.6167,-6.622,-6.6173,-6.6209,-6.6218,-6.6228,-6.6243,-6.597,-6.6226,-6.6225,-6.6224,-6.6223,-6.6223,0,-6.6048,-6.605,-6.61,-6.6136,-6.6178,-6.612,-6.6142,-6.6181,-6.6243,-6.6258,-6.6297,-6.6363,-6.6412,-6.6398,-6.6441,-6.6486,-6.6461,-6.6499,-6.6496,-6.6498,-6.6281,-6.6256,-6.6519,-6.6519,-6.6519,-6.6519,-6.6519,-6.6519,-6.6193,-6.6293,-6.6275,-6.6379,-6.638,-6.6448,-6.6466,-6.6487,-6.6498,-6.6576,-6.6617,-6.6607,-6.661,-6.6653,-6.6695,-6.6689,-6.6709,-6.6758,-6.6743,-6.6542,-6.6513,-6.6485,-6.6461,-6.6763,-6.6763,-6.6955,-6.6957,-6.6958]}]]